Spokane Fairchild, WA
on Tuesday, November 6, 2012

Tuesday
Previous Day Next Day
Daily Summary
 ActualAverage (KGEG)Record (KGEG)
Temperature
Mean Temperature °F 39°F  
Max Temperature 54°F 46°F 61°F (2006)
Min Temperature 37°F 32°F 9°F (2003)
Degree Days
Heating Degree Days 20 26  
Month to date heating degree days 149  
Since 1 July heating degree days 937  
Cooling Degree Days 0 0  
Month to date cooling degree days 0  
Year to date cooling degree days 450  
Moisture
Dew Point 44°F   
Average Humidity 100    
Maximum Humidity 100    
Minimum Humidity 100    
Precipitation
Precipitation 0.02 in 0.07 in 0.84 in (1903)
Month to date precipitation 0.39  
Year to date precipitation 12.35  
Snow
Snow 0.00 in 0.10 in 0.30 in (1975)
Month to date snowfall 0.5  
Since 1 July snowfall 0.6  
Since 1 September snowfall 0.6  
Snow Depth in   
Wind
Wind Speed 5 mph   
Max Wind Speed 13 mph   
Max Gust Speed mph   
Visibility 3 miles   
Events Fog , Rain   

Key: T is trace of precipitation, MM is missing value
Source: NWS Daily Summary
Time(PST)TemperatureDew PointHumidity Pressure Visibility Wind DirectionWind SpeedGust SpeedPrecipitationEvents Conditions
12:03 AM 41.0°F 41.0°F 100% 30.20 in 0.5 miles Calm Calm - N/A Fog Fog
12:18 AM 41.0°F 41.0°F 100% 30.20 in 0.8 miles NE 2.3 mph - N/A   Clear
12:23 AM 41.0°F 41.0°F 100% 30.20 in 1.5 miles NE 1.2 mph - N/A   Clear
12:28 AM 41.0°F 41.0°F 100% 30.20 in 8.0 miles NE 3.5 mph - N/A   Clear
12:33 AM 39.2°F 39.2°F 100% 30.20 in 10.0 miles NNE 2.3 mph - N/A   Clear
12:58 AM 38.8°F 38.8°F 100% 30.22 in 10.0 miles ENE 2.3 mph - N/A   Mostly Cloudy
1:53 AM 39.2°F 39.2°F 100% 30.18 in 2.5 miles NE 4.6 mph - N/A   Overcast
1:58 AM 39.6°F 39.6°F 100% 30.22 in 1.2 miles NE 3.5 mph - N/A   Overcast
2:03 AM 39.2°F 39.2°F 100% 30.18 in 1.0 miles NE 4.6 mph - N/A   Mostly Cloudy
2:13 AM 39.2°F 39.2°F 100% 30.18 in 1.5 miles NE 4.6 mph - N/A   Scattered Clouds
2:18 AM 39.2°F 39.2°F 100% 30.18 in 1.2 miles NE 4.6 mph - N/A   Partly Cloudy
2:23 AM 39.2°F 39.2°F 100% 30.18 in 1.0 miles NNE 4.6 mph - N/A   Clear
2:28 AM 39.2°F 39.2°F 100% 30.18 in 1.0 miles NNE 4.6 mph - N/A   Clear
2:33 AM 39.2°F 39.2°F 100% 30.18 in 1.8 miles NNE 5.8 mph - N/A   Clear
2:38 AM 39.2°F 39.2°F 100% 30.18 in 6.0 miles NNE 5.8 mph - N/A   Clear
2:43 AM 39.2°F 39.2°F 100% 30.18 in 0.8 miles NNE 4.6 mph - N/A   Clear
2:48 AM 39.2°F 39.2°F 100% 30.18 in 0.5 miles NE 4.6 mph - N/A Fog Fog
2:58 AM 39.0°F 39.0°F 100% 30.20 in 1.0 miles NE 3.5 mph - N/A   Clear
3:03 AM 39.2°F 39.2°F 100% 30.17 in 0.8 miles NE 4.6 mph - N/A   Clear
3:08 AM 37.4°F 37.4°F 100% 30.17 in 0.5 miles NE 3.5 mph - N/A Fog Fog
3:10 AM 37.4°F 37.4°F 100% 30.17 in 0.5 miles NE 3.5 mph - N/A Fog Fog
3:14 AM 37.4°F 37.4°F 100% 30.17 in 0.5 miles NE 3.5 mph - N/A Fog Fog
3:28 AM 37.4°F 37.4°F 100% 30.16 in 0.5 miles NE 5.8 mph - N/A Fog Fog
3:38 AM 37.4°F 37.4°F 100% 30.15 in 1.0 miles NE 5.8 mph - N/A   Clear
3:43 AM 37.4°F 37.4°F 100% 30.15 in 1.5 miles NE 5.8 mph - N/A   Clear
3:48 AM 37.4°F 37.4°F 100% 30.15 in 2.0 miles NE 4.6 mph - N/A   Clear
3:53 AM 37.4°F 37.4°F 100% 30.15 in 2.0 miles NE 4.6 mph - N/A   Clear
3:58 AM 37.8°F 37.8°F 100% 30.19 in 2.0 miles NE 5.8 mph - 0.00 in   Clear
4:03 AM 37.4°F 37.4°F 100% 30.15 in 1.8 miles NE 5.8 mph - N/A   Clear
4:13 AM 39.2°F 39.2°F 100% 30.15 in 1.0 miles NE 4.6 mph - N/A   Clear
4:18 AM 39.2°F 39.2°F 100% 30.15 in 0.5 miles NE 6.9 mph - N/A Fog Fog
4:35 AM 39.2°F 39.2°F 100% 30.15 in 0.5 miles NE 4.6 mph - N/A Fog Fog
4:40 AM 39.2°F 39.2°F 100% 30.14 in 0.2 miles NE 3.5 mph - N/A Fog Fog
4:52 AM 37.4°F 37.4°F 100% 30.14 in 0.2 miles NE 3.5 mph - N/A Fog Fog
4:58 AM 37.8°F 37.8°F 100% 30.18 in 0.1 miles NE 3.5 mph - 0.00 in Fog Fog
5:08 AM 37.4°F 37.4°F 100% 30.14 in 0.8 miles NNE 6.9 mph - N/A   Clear
5:09 AM 37.4°F 37.4°F 100% 30.14 in 0.8 miles NNE 6.9 mph - N/A   Mist
5:14 AM 37.4°F 37.4°F 100% 30.14 in 0.5 miles NNE 5.8 mph - N/A Fog Fog
5:19 AM 37.4°F 37.4°F 100% 30.14 in 0.5 miles NNE 6.9 mph - N/A Fog Fog
5:58 AM 39.2°F 39.2°F 100% 30.16 in 0.5 miles NE 5.8 mph - 0.00 in Fog Fog
6:03 AM 39.2°F 39.2°F 100% 30.12 in 0.5 miles NE 5.8 mph - N/A Fog Fog
6:13 AM 39.2°F 39.2°F 100% 30.13 in 0.5 miles NNE 6.9 mph - N/A Fog Fog
6:23 AM 39.2°F 39.2°F 100% 30.13 in 0.8 miles NNE 6.9 mph - N/A   Mist
6:33 AM 39.2°F 39.2°F 100% 30.12 in 0.5 miles NE 6.9 mph - N/A Fog Fog
6:38 AM 39.2°F 39.2°F 100% 30.12 in 0.2 miles NE 5.8 mph - N/A Fog Fog
6:44 AM 39.2°F 39.2°F 100% 30.12 in 0.2 miles ENE 5.8 mph - N/A Fog Fog
6:58 AM 40.1°F 40.1°F 100% 30.16 in 0.2 miles NE 9.2 mph - 0.00 in Fog Fog
6:59 AM 41.0°F 41.0°F 100% 30.12 in 0.2 miles NE 8.1 mph - N/A Fog Fog
7:09 AM 41.0°F 41.0°F 100% 30.12 in 0.2 miles NE 9.2 mph - N/A Fog Fog
7:23 AM 41.0°F 41.0°F 100% 30.12 in 0.2 miles NE 8.1 mph - N/A Fog Fog
7:34 AM 41.0°F 41.0°F 100% 30.11 in 0.2 miles NE 6.9 mph - N/A Fog Fog
7:58 AM 41.0°F 41.0°F 100% 30.15 in 0.2 miles NE 6.9 mph - 0.00 in Fog Fog
8:03 AM 41.0°F 41.0°F 100% 30.11 in 0.5 miles NE 8.1 mph - N/A Fog Fog
8:08 AM 41.0°F 41.0°F 100% 30.11 in 0.8 miles NE 6.9 mph - N/A   Mist
8:13 AM 41.0°F 41.0°F 100% 30.11 in 0.5 miles NNE 6.9 mph - N/A Fog Fog
8:21 AM 41.0°F 41.0°F 100% 30.11 in 0.2 miles NE 8.1 mph - N/A Fog Fog
8:47 AM 41.0°F 41.0°F 100% 30.10 in 0.2 miles NNE 6.9 mph - N/A Fog Fog
8:58 AM 41.9°F 41.9°F 100% 30.13 in 0.2 miles NE 6.9 mph - 0.00 in Fog Fog
9:08 AM 42.8°F 42.8°F 100% 30.09 in 0.2 miles NE 6.9 mph - N/A Fog Fog
9:23 AM 42.8°F 42.8°F 100% 30.09 in 0.2 miles ENE 6.9 mph - N/A Fog Fog
9:28 AM 42.8°F 42.8°F 100% 30.08 in 0.2 miles NE 8.1 mph - N/A Fog Fog
9:58 AM 43.5°F 43.5°F 100% 30.12 in 0.2 miles NNE 6.9 mph - N/A Fog Fog
10:33 AM 44.6°F 44.6°F 100% 30.06 in 0.5 miles NE 8.1 mph - N/A Fog Fog
10:43 AM 46.4°F 46.4°F 100% 30.06 in 0.5 miles NE 6.9 mph - N/A Fog Fog
10:58 AM 46.0°F 46.0°F 100% 30.09 in 0.5 miles NE 6.9 mph - N/A Fog Fog
11:03 AM 46.4°F 46.4°F 100% 30.05 in 0.8 miles NE 6.9 mph - N/A   Mist
11:13 AM 46.4°F 46.4°F 100% 30.05 in 1.0 miles NNE 6.9 mph - N/A   Mist
11:18 AM 48.2°F 48.2°F 100% 30.04 in 2.0 miles NNE 6.9 mph - N/A   Overcast
11:23 AM 48.2°F 48.2°F 100% 30.04 in 3.0 miles NNE 6.9 mph - N/A   Overcast
11:28 AM 48.2°F 48.2°F 100% 30.03 in 6.0 miles NE 5.8 mph - N/A   Mostly Cloudy
11:48 AM 48.2°F 48.2°F 100% 30.02 in 10.0 miles NE 5.8 mph - N/A   Scattered Clouds
11:53 AM 48.2°F 48.2°F 100% 30.02 in 10.0 miles NNE 5.8 mph - N/A   Mostly Cloudy
11:58 AM 48.9°F 48.9°F 100% 30.05 in 10.0 miles Variable 5.8 mph - N/A   Partly Cloudy
12:58 PM 51.6°F 51.6°F 100% 30.01 in 10.0 miles NE 6.9 mph - N/A   Clear
1:58 PM 52.7°F 52.7°F 100% 29.98 in 10.0 miles NNE 6.9 mph - N/A   Clear
2:17 PM 53.6°F 53.6°F 100% 29.95 in 10.0 miles North 5.8 mph - N/A   Clear
2:58 PM 54.0°F 54.0°F 100% 29.97 in 10.0 miles SSE 2.3 mph - N/A   Clear
3:58 PM 51.6°F 51.6°F 100% 29.94 in 10.0 miles NNE 4.6 mph - N/A   Clear
4:58 PM 49.8°F 49.8°F 100% 29.94 in 3.0 miles Calm Calm - N/A   Clear
5:08 PM 51.8°F 51.8°F 100% 29.90 in 4.0 miles Calm Calm - N/A   Clear
5:58 PM 49.1°F 49.1°F 100% 29.91 in 10.0 miles SE 2.3 mph - N/A   Mostly Cloudy
6:58 PM 52.7°F 52.7°F 100% 29.90 in 10.0 miles South 6.9 mph - N/A   Overcast
7:38 PM 51.8°F 51.8°F 100% 29.88 in 10.0 miles SSW 6.9 mph - N/A Rain Light Rain
7:58 PM 52.5°F 52.5°F 100% 29.91 in 10.0 miles South 8.1 mph - 0.00 in Rain Light Rain
8:27 PM 51.8°F 51.8°F 100% 29.86 in 10.0 miles South 9.2 mph - N/A   Mostly Cloudy
8:36 PM 51.8°F 51.8°F 100% 29.86 in 10.0 miles SSW 10.4 mph - N/A Rain Light Rain
8:50 PM 51.8°F 51.8°F 100% 29.88 in 10.0 miles SSW 10.4 mph - N/A Rain Light Rain
8:58 PM 52.0°F 52.0°F 100% 29.89 in 10.0 miles SSW 9.2 mph - 0.00 in Rain Light Rain
9:03 PM 51.8°F 51.8°F 100% 29.87 in 10.0 miles SSW 9.2 mph - N/A Rain Light Rain
9:08 PM 51.8°F 51.8°F 100% 29.87 in 10.0 miles South 11.5 mph - N/A Rain Light Rain
9:09 PM 51.8°F 51.8°F 100% 29.87 in 10.0 miles South 11.5 mph - N/A   Overcast
9:26 PM 51.8°F 51.8°F 100% 29.87 in 7.0 miles South 12.7 mph - N/A Rain Light Rain
9:41 PM 51.8°F 51.8°F 100% 29.88 in 6.0 miles South 12.7 mph - N/A Rain Light Rain
9:51 PM 51.8°F 51.8°F 100% 29.87 in 5.0 miles SSW 11.5 mph - N/A   Overcast
9:58 PM 51.3°F 51.3°F 100% 29.90 in 5.0 miles SSW 12.7 mph - 0.01 in   Overcast
10:03 PM 51.8°F 51.8°F 100% 29.88 in 5.0 miles SSW 12.7 mph - N/A   Overcast
10:21 PM 51.8°F 51.8°F 100% 29.88 in 4.0 miles SSW 10.4 mph - N/A Rain Light Rain
10:33 PM 50.0°F 50.0°F 100% 29.88 in 4.0 miles SSW 10.4 mph - N/A   Overcast
10:39 PM 50.0°F 50.0°F 100% 29.88 in 4.0 miles South 10.4 mph - N/A Rain Light Rain
10:49 PM 50.0°F 50.0°F 100% 29.88 in 4.0 miles South 11.5 mph - N/A Rain Light Rain
10:58 PM 50.5°F 50.5°F 100% 29.90 in 4.0 miles South 10.4 mph - 0.01 in Rain Light Rain
11:06 PM 50.0°F 50.0°F 100% 29.88 in 4.0 miles SSW 11.5 mph - N/A   Overcast
11:58 PM 49.6°F 49.6°F 100% 29.90 in 5.0 miles SSW 10.4 mph - 0.00 in   Overcast
Moon Phase
Nov. 06 Nov. 06 Nov. 13 Nov. 20 Nov. 28
Sunrise:06:43 AM (PST) Moon Rise:11:14 PM (PST)11/6
Sunset:04:24 PM (PST) Moon Set:12:33 PM (PST)11/6

Copyright © 2014 The Weather Underground, Inc.